Left ArrowRight Arrow

Hourly Observations for December 23, 2021

Temp ( °F °C ) Dew Point ( °F °C ) Humidity (%) Winds ( mph kmh ) Pressure ( in mb ) Visibility ( mi km ) Precip ( " mm )
12:24 am 00:24 Cloudy with Rain 50 10 49 9.4 96 96 S 13 20 29.95 1014 2 3 0.02 0.51
12:38 am 00:38 Cloudy with Light Rain 50 10 49 9.4 96 96 SE 15 24 29.93 1014 3 5 0.04 1.02
12:53 am 00:53 Cloudy with Light Rain 50 10 49 9.4 96 96 SE 13 20 29.93 1014 3 5 0.05 1.27
1:05 am 01:05 Cloudy with Light Rain 50 10 49 9.4 96 96 ESE 15 24 29.93 1014 3 4 0.00 0.00
1:24 am 01:24 Cloudy with Light Rain 50 10 49 9.4 96 96 ESE 13 20 29.93 1014 4 6 0.00 0.00
1:53 am 01:53 Cloudy with Mist and Fog 50 10 49 9.4 96 96 ESE 13 20 29.91 1013 6 10 0.00 0.00
2:53 am 02:53 Mostly Clear 50 10 49 9.4 96 96 ESE 18 30 29.89 1012 7 11 0.00 0.00
3:53 am 03:53 Clear 51 10.6 49 9.4 92 92 ESE 15 24 29.87 1012 10 16 0.00 0.00
4:53 am 04:53 Mostly Clear 53 11.7 49 9.4 86 86 ESE 17 28 29.85 1011 10 16 0.00 0.00
5:53 am 05:53 Cloudy 53 11.7 47 8.3 80 80 SE 18 30 29.83 1010 10 16 0.00 0.00
6:53 am 06:53 Cloudy 54 12.2 50 10 87 87 SE 15 24 29.83 1010 10 16 0.00 0.00
7:53 am 07:53 Mostly Cloudy 56 13.3 51 10.6 84 84 SE 13 20 29.82 1010 10 16 0.00 0.00
8:53 am 08:53 Mostly Cloudy 58 14.4 52 11.1 81 81 SE 17 28 29.80 1009 10 16 0.00 0.00
9:53 am 09:53 Cloudy with Light Rain 57 13.9 53 11.7 87 87 SSE 14 22 29.83 1010 9 14 0.00 0.00
10:53 am 10:53 Cloudy 57 13.9 54 12.2 90 90 SE 15 24 29.80 1009 10 16 0.01 0.25
11:53 am 11:53 Cloudy with Light Rain 57 13.9 54 12.2 90 90 SSE 12 19 29.80 1009 4 6 0.03 0.76
12:53 pm 12:53 Cloudy with Light Rain 57 13.9 56 13.3 96 96 WNW 10 17 29.81 1009 9 14 0.00 0.00
1:01 pm 13:01 Cloudy with Light Rain 55 12.8 53 11.7 93 93 WNW 15 24 29.81 1010 2 3 0.03 0.76
1:03 pm 13:03 Cloudy with Heavy Rain 54 12.2 53 11.7 97 97 W 13 20 29.82 1010 1 2 0.07 1.78
1:08 pm 13:08 Cloudy with Heavy Rain 54 12.2 53 11.7 97 97 WSW 12 19 29.82 1010 1 1 0.25 6.35
1:20 pm 13:20 Cloudy with Light Rain 54 12.2 53 11.7 97 97 WNW 9 15 29.81 1010 2 3 0.30 7.62
1:27 pm 13:27 Cloudy with Light Rain 54 12.2 53 11.7 97 97 WNW 8 13 29.80 1009 6 10 0.30 7.62
1:45 pm 13:45 Cloudy with Light Rain 55 12.8 54 12.2 96 96 WNW 6 9 29.80 1009 3 4 0.31 7.87
1:53 pm 13:53 Cloudy with Light Rain 54 12.2 53 11.7 97 97 WNW 5 7 29.79 1009 3 5 0.32 8.13
2:01 pm 14:01 Cloudy with Light Rain 54 12.2 53 11.7 97 97 Calm 29.79 1009 3 4 0.00 0.00
2:09 pm 14:09 Cloudy with Light Rain 55 12.8 53 11.7 93 93 Calm 29.80 1009 4 6 0.00 0.00
2:18 pm 14:18 Cloudy with Light Rain 55 12.8 53 11.7 93 93 N 3 6 29.79 1009 2 3 0.00 0.00
2:27 pm 14:27 Cloudy with Light Rain 55 12.8 53 11.7 93 93 NE 5 7 29.78 1009 7 11 0.00 0.00
2:53 pm 14:53 Cloudy with Light Rain 55 12.8 53 11.7 93 93 ENE 7 11 29.78 1009 10 16 0.00 0.00
3:53 pm 15:53 Cloudy 55 12.8 54 12.2 96 96 ESE 6 9 29.77 1008 10 16 0.00 0.00
4:17 pm 16:17 Cloudy with Light Rain 54 12.2 53 11.7 97 97 E 10 17 29.76 1008 3 4 0.00 0.00
4:24 pm 16:24 Mostly Cloudy with Light Rain 55 12.8 53 11.7 93 93 E 12 19 29.76 1008 9 14 0.00 0.00
4:53 pm 16:53 Mostly Clear 54 12.2 53 11.7 97 97 NE 5 7 29.78 1008 10 16 0.00 0.00
5:24 pm 17:24 Cloudy 54 12.2 53 11.7 97 97 E 5 7 29.78 1009 10 16 0.00 0.00
5:53 pm 17:53 Cloudy 54 12.2 52 11.1 93 93 E 8 13 29.77 1008 10 16 0.00 0.00
6:53 pm 18:53 Cloudy 54 12.2 52 11.1 93 93 ESE 7 11 29.75 1008 10 16 0.00 0.00
7:53 pm 19:53 Mostly Cloudy 54 12.2 51 10.6 90 90 E 8 13 29.74 1007 10 16 0.00 0.00
8:06 pm 20:06 Partly Cloudy 54 12.2 51 10.6 90 90 E 6 9 29.75 1008 10 16 0.00 0.00
8:44 pm 20:44 Mostly Cloudy 54 12.2 51 10.6 90 90 ESE 8 13 29.75 1008 10 16 0.00 0.00
8:53 pm 20:53 Mostly Cloudy 54 12.2 51 10.6 90 90 SE 9 15 29.74 1007 10 16 0.00 0.00
9:08 pm 21:08 Mostly Cloudy 54 12.2 52 11.1 93 93 SE 9 15 29.75 1008 10 16 0.00 0.00
9:41 pm 21:41 Cloudy 55 12.8 53 11.7 93 93 SE 9 15 29.75 1007 10 16 0.00 0.00
9:53 pm 21:53 Cloudy with Light Rain 55 12.8 53 11.7 93 93 SE 9 15 29.75 1007 10 16 0.00 0.00
10:15 pm 22:15 Mostly Cloudy 55 12.8 53 11.7 93 93 SE 8 13 29.76 1008 10 16 0.00 0.00
10:53 pm 22:53 Clear 53 11.7 52 11.1 96 96 SE 9 15 29.75 1007 9 14 0.00 0.00
11:53 pm 23:53 Clear 52 11.1 51 10.6 97 97 SSE 9 15 29.75 1008 10 16 0.00 0.00

Powered by Vaisala Xweather